FW0069 Weather Reports


Display with metric or nautical units.
time (UTC)temp
F
wind
direction
speed
MPH
gust
MPH
rain 1hr
in
rain 24hr
in
rain mn
in
humidity
%
barometer
mb
20260904110100 75 84 7.0 9.0 0.00 0.00 0.00 28 1010.5
20260904105601 75 107 7.0 8.0 0.00 0.00 0.00 27 1010.5
20260904105030 75 123 1.0 9.0 0.00 0.00 0.00 27 1010.5
20260904104600 75 85 6.0 9.0 0.00 0.00 0.00 26 1010.5
20260904104100 75 96 5.0 9.0 0.00 0.00 0.00 26 1010.5
20260904103600 75 81 8.0 9.0 0.00 0.00 0.00 26 1010.4
20260904103100 75 79 6.0 9.0 0.00 0.00 0.00 26 1010.4
20260904102600 75 75 4.0 9.0 0.00 0.00 0.00 26 1010.4
20260904101600 75 69 2.0 7.0 0.00 0.00 0.00 25 1010.3
20260904101100 74 68 3.0 7.0 0.00 0.00 0.00 25 1010.3
20260904100600 74 75 3.0 6.0 0.00 0.00 0.00 24 1010.2
20260904100100 74 72 5.0 7.0 0.00 0.00 0.00 24 1010.1
20260904095600 75 75 4.0 7.0 0.00 0.00 0.00 23 1010.2
20260904095100 75 90 5.0 6.0 0.00 0.00 0.00 23 1010.2
20260904094100 75 111 3.0 7.0 0.00 0.00 0.00 23 1010.1
20260904093600 75 136 2.0 4.0 0.00 0.00 0.00 23 1010.2
20260904092600 75 137 3.0 4.0 0.00 0.00 0.00 22 1010.1
20260904092100 75 139 3.0 4.0 0.00 0.00 0.00 21 1010.0
20260904091600 76 147 1.0 3.0 0.00 0.00 0.00 20 1010.3
20260904091100 76 147 1.0 4.0 0.00 0.00 0.00 20 1010.2
20260904090600 76 147 0.0 4.0 0.00 0.00 0.00 20 1010.1
20260904090100 76 147 3.0 3.0 0.00 0.00 0.00 20 1010.2
20260904085600 77 147 1.0 4.0 0.00 0.00 0.00 19 1010.2
20260904085100 77 147 2.0 4.0 0.00 0.00 0.00 20 1010.3
20260904084600 77 147 1.0 3.0 0.00 0.00 0.00 20 1010.3
20260904084100 77 147 1.0 3.0 0.00 0.00 0.00 20 1010.2
20260904083100 78 147 0.0 3.0 0.00 0.00 0.00 22 1010.5
20260904082100 78 139 1.0 3.0 0.00 0.00 0.00 20 1010.3
20260904081100 78 139 1.0 2.0 0.00 0.00 0.00 19 1010.5
20260904080600 78 132 1.0 2.0 0.00 0.00 0.00 18 1010.6
20260904080100 78 132 1.0 3.0 0.00 0.00 0.00 18 1010.6
20260904075600 78 131 2.0 3.0 0.00 0.00 0.00 17 1010.2
20260904075100 78 131 2.0 3.0 0.00 0.00 0.00 17 1010.1
20260904074600 79 131 1.0 2.0 0.00 0.00 0.00 17 1010.2
20260904074030 79 131 0.0 2.0 0.00 0.00 0.00 16 1010.2
20260904073100 80 131 0.0 2.0 0.00 0.00 0.00 16 1010.3
20260904072600 80 131 0.0 2.0 0.00 0.00 0.00 15 1010.2
20260904072030 80 131 0.0 2.0 0.00 0.00 0.00 15 1010.0
20260904071600 80 131 1.0 3.0 0.00 0.00 0.00 15 1010.0
20260904071100 80 131 1.0 4.0 0.00 0.00 0.00 15 1010.0
20260904070559 81 131 2.0 4.0 0.00 0.00 0.00 15 1010.3
20260904070100 81 131 1.0 4.0 0.00 0.00 0.00 14 1010.2
20260904065600 81 131 2.0 4.0 0.00 0.00 0.00 14 1010.0
20260904065100 81 131 4.0 5.0 0.00 0.00 0.00 14 1009.9
20260904064059 81 137 2.0 3.0 0.00 0.00 0.00 15 1010.1
20260904063559 82 137 0.0 5.0 0.00 0.00 0.00 15 1010.0
20260904063100 82 103 0.0 5.0 0.00 0.00 0.00 15 1010.0
20260904062559 82 114 0.0 5.0 0.00 0.00 0.00 15 1009.9
20260904062059 82 114 3.0 5.0 0.00 0.00 0.00 15 1009.8
20260904061600 82 116 2.0 7.0 0.00 0.00 0.00 14 1009.7
20260904061059 82 109 2.0 10.0 0.00 0.00 0.00 14 1009.7
20260904060600 82 115 2.0 10.0 0.00 0.00 0.00 14 1009.7
20260904055059 82 111 3.0 8.0 0.00 0.00 0.00 14 1009.3
20260904054600 82 116 5.0 8.0 0.00 0.00 0.00 14 1009.4
20260904054100 83 107 4.0 7.0 0.00 0.00 0.00 15 1009.5
20260904053059 83 76 5.0 7.0 0.00 0.00 0.00 15 1009.5
20260904052559 83 97 3.0 7.0 0.00 0.00 0.00 15 1009.5
20260904052059 83 91 3.0 7.0 0.00 0.00 0.00 15 1009.6
20260904051059 84 111 1.0 5.0 0.00 0.00 0.00 15 1009.6
20260904050559 84 113 4.0 5.0 0.00 0.00 0.00 15 1009.7
20260904045600 85 138 2.0 5.0 0.00 0.00 0.00 14 1009.4
20260904045100 85 138 4.0 5.0 0.00 0.00 0.00 14 1009.5
20260904044559 85 145 0.0 5.0 0.00 0.00 0.00 14 1009.5
20260904043559 85 164 3.0 7.0 0.00 0.00 0.00 14 1009.4
20260904043100 85 199 1.0 7.0 0.00 0.00 0.00 14 1009.6
20260904042559 85 133 1.0 6.0 0.00 0.00 0.00 14 1009.4
20260904042059 85 171 5.0 6.0 0.00 0.00 0.00 14 1009.5
20260904041559 86 202 4.0 11.0 0.00 0.00 0.00 13 1009.5
20260904041100 86 179 4.0 11.0 0.00 0.00 0.00 13 1009.6
20260904035600 86 178 6.0 10.0 0.00 0.00 0.00 13 1009.1
20260904035059 86 190 6.0 12.0 0.00 0.00 0.00 13 1009.0
20260904034559 86 190 9.0 12.0 0.00 0.00 0.00 13 1009.0
20260904034059 86 189 12.0 13.0 0.00 0.00 0.00 13 1009.0
20260904033559 86 176 4.0 13.0 0.00 0.00 0.00 13 1008.9
20260904033100 86 202 9.0 10.0 0.00 0.00 0.00 13 1008.7
20260904032559 86 181 3.0 8.0 0.00 0.00 0.00 13 1008.8
20260904032100 86 169 4.0 8.0 0.00 0.00 0.00 13 1008.7
20260904031559 86 202 2.0 8.0 0.00 0.00 0.00 12 1008.8
20260904030559 87 178 2.0 8.0 0.00 0.00 0.00 12 1008.6
20260904030059 87 171 5.0 8.0 0.00 0.00 0.00 12 1008.7
20260904025559 87 202 6.0 10.0 0.00 0.00 0.00 12 1008.5
20260904025100 87 184 2.0 10.0 0.00 0.00 0.00 12 1008.5
20260904024559 87 191 5.0 8.0 0.00 0.00 0.00 12 1008.4
20260904024100 88 173 3.0 7.0 0.00 0.00 0.00 12 1008.5
20260904023559 88 192 4.0 7.0 0.00 0.00 0.00 11 1008.6
20260904023100 88 360 7.0 8.0 0.00 0.00 0.00 11 1008.4
20260904022600 88 360 2.0 9.0 0.00 0.00 0.00 11 1008.4
20260904021600 89 201 6.0 14.0 0.00 0.00 0.00 11 1008.4
20260904021100 89 360 6.0 17.0 0.00 0.00 0.00 11 1008.6
20260904020559 89 360 10.0 17.0 0.00 0.00 0.00 11 1008.5
20260904020100 89 360 4.0 16.0 0.00 0.00 0.00 11 1008.4
20260904015559 89 360 9.0 16.0 0.00 0.00 0.00 11 1008.2
20260904015100 90 360 9.0 13.0 0.00 0.00 0.00 11 1008.5
20260904014559 90 190 8.0 12.0 0.00 0.00 0.00 11 1008.3
20260904014059 90 168 5.0 14.0 0.00 0.00 0.00 11 1008.4
20260904013559 90 198 7.0 14.0 0.00 0.00 0.00 11 1008.4
20260904013100 91 200 7.0 14.0 0.00 0.00 0.00 11 1008.5
20260904012559 91 188 6.0 11.0 0.00 0.00 0.00 11 1008.5
20260904012100 91 175 4.0 11.0 0.00 0.00 0.00 11 1008.5
20260904011559 91 162 7.0 15.0 0.00 0.00 0.00 11 1008.4
20260904011100 91 200 5.0 15.0 0.00 0.00 0.00 10 1008.5
20260904010600 91 182 13.0 14.0 0.00 0.00 0.00 10 1008.5
20260904010059 92 168 10.0 17.0 0.00 0.00 0.00 10 1008.6
20260904005559 92 181 10.0 17.0 0.00 0.00 0.00 10 1008.6
20260904005100 92 210 3.0 12.0 0.00 0.00 0.00 11 1008.6
20260904004559 92 199 7.0 17.0 0.00 0.00 0.00 10 1008.7
20260904003559 92 196 5.0 15.0 0.00 0.00 0.00 10 1008.7
20260904002100 93 194 8.0 17.0 0.00 0.00 0.00 10 1008.7
20260904001559 93 211 6.0 17.0 0.00 0.00 0.00 10 1008.8
20260904001059 94 171 2.0 11.0 0.00 0.00 0.00 10 1009.0
20260904000059 94 175 4.0 13.0 0.00 0.00 0.00 11 1009.1
20260903235059 94 192 2.0 15.0 0.00 0.00 0.00 11 1009.1
20260903234059 94 165 6.0 17.0 0.00 0.00 0.00 10 1009.3
20260903233559 94 143 4.0 13.0 0.00 0.00 0.00 10 1009.3
20260903233059 94 166 4.0 14.0 0.00 0.00 0.00 10 1009.3
20260903232559 94 183 10.0 17.0 0.00 0.00 0.00 10 1009.3
20260903232059 94 198 5.0 17.0 0.00 0.00 0.00 10 1009.5
20260903231559 94 190 17.0 17.0 0.00 0.00 0.00 10 1009.4
20260903231100 94 115 5.0 18.0 0.00 0.00 0.00 10 1009.5
20260903230559 95 184 9.0 18.0 0.00 0.00 0.00 10 1009.7
20260903225559 94 167 8.0 13.0 0.00 0.00 0.00 10 1009.8
20260903224559 94 177 6.0 16.0 0.00 0.00 0.00 10 1009.9
20260903224059 94 171 9.0 16.0 0.00 0.00 0.00 10 1009.9
20260903223559 94 120 12.0 16.0 0.00 0.00 0.00 10 1010.0
20260903223059 94 180 3.0 16.0 0.00 0.00 0.00 10 1010.0
20260903222559 94 153 9.0 18.0 0.00 0.00 0.00 10 1010.1
20260903222059 94 151 6.0 18.0 0.00 0.00 0.00 10 1010.0
20260903221559 94 107 3.0 18.0 0.00 0.00 0.00 10 1010.2
20260903221059 94 162 5.0 16.0 0.00 0.00 0.00 11 1010.3
20260903220559 94 150 4.0 16.0 0.00 0.00 0.00 10 1010.3
20260903220100 94 158 6.0 18.0 0.00 0.00 0.00 10 1010.5
20260903215059 94 203 7.0 21.0 0.00 0.00 0.00 11 1010.8
20260903214559 94 178 7.0 16.0 0.00 0.00 0.00 11 1010.7
20260903214059 94 161 5.0 19.0 0.00 0.00 0.00 11 1010.7
20260903213059 94 180 7.0 19.0 0.00 0.00 0.00 11 1010.8
20260903212559 93 173 7.0 19.0 0.00 0.00 0.00 11 1010.7
20260903212059 94 128 6.0 15.0 0.00 0.00 0.00 11 1010.9
20260903211059 94 180 9.0 16.0 0.00 0.00 0.00 11 1010.8
20260903210559 94 200 9.0 16.0 0.00 0.00 0.00 11 1010.8
20260903210059 94 100 8.0 14.0 0.00 0.00 0.00 11 1010.9
20260903205559 94 158 7.0 16.0 0.00 0.00 0.00 12 1011.0
20260903204559 93 167 5.0 15.0 0.00 0.00 0.00 11 1011.2
20260903204059 92 173 4.0 15.0 0.00 0.00 0.00 12 1011.2
20260903203059 93 203 4.0 13.0 0.00 0.00 0.00 12 1011.3
20260903202559 92 182 4.0 13.0 0.00 0.00 0.00 12 1011.5
20260903202059 92 185 4.0 13.0 0.00 0.00 0.00 12 1011.4
20260903201559 93 159 5.0 14.0 0.00 0.00 0.00 12 1011.7
20260903201059 92 136 6.0 17.0 0.00 0.00 0.00 12 1011.7
20260903200059 91 150 4.0 15.0 0.00 0.00 0.00 12 1011.7
20260903195059 91 182 6.0 17.0 0.00 0.00 0.00 12 1011.9
20260903194059 91 172 5.0 15.0 0.00 0.00 0.00 13 1012.0
20260903193059 90 118 8.0 16.0 0.00 0.00 0.00 12 1011.9
20260903192559 90 111 5.0 14.0 0.00 0.00 0.00 12 1012.1
20260903191559 89 114 5.0 13.0 0.00 0.00 0.00 12 1012.0
20260903191059 89 83 10.0 17.0 0.00 0.00 0.00 13 1012.2
20260903190559 89 175 5.0 17.0 0.00 0.00 0.00 13 1012.2
20260903190059 89 124 6.0 11.0 0.00 0.00 0.00 13 1012.2
20260903185558 88 127 7.0 14.0 0.00 0.00 0.00 13 1012.4
20260903184559 87 100 9.0 14.0 0.00 0.00 0.00 13 1012.4
20260903184059 88 90 8.0 14.0 0.00 0.00 0.00 14 1012.6
20260903183559 87 117 7.0 14.0 0.00 0.00 0.00 14 1012.7
20260903183058 87 97 7.0 14.0 0.00 0.00 0.00 15 1012.8
20260903182559 87 119 7.0 11.0 0.00 0.00 0.00 14 1012.8
20260903182058 87 97 6.0 16.0 0.00 0.00 0.00 15 1013.0
20260903181559 86 129 7.0 16.0 0.00 0.00 0.00 15 1013.1
20260903180558 86 159 3.0 13.0 0.00 0.00 0.00 15 1013.2
20260903180058 85 134 7.0 13.0 0.00 0.00 0.00 15 1013.0
20260903175559 85 149 2.0 10.0 0.00 0.00 0.00 15 1013.3
20260903175058 84 172 6.0 11.0 0.00 0.00 0.00 16 1013.3
20260903174558 84 97 2.0 11.0 0.00 0.00 0.00 16 1013.3
20260903174058 84 103 10.0 12.0 0.00 0.00 0.00 16 1013.3
20260903173559 83 98 2.0 12.0 0.00 0.00 0.00 17 1013.3
20260903172059 82 157 4.0 12.0 0.00 0.00 0.00 17 1013.1
20260903171558 82 103 7.0 10.0 0.00 0.00 0.00 18 1013.1
20260903170558 82 157 3.0 10.0 0.00 0.00 0.00 18 1013.2
20260903170058 82 110 9.0 9.0 0.00 0.00 0.00 18 1013.2
20260903164559 81 175 2.0 14.0 0.00 0.00 0.00 18 1013.1
20260903164058 80 116 10.0 13.0 0.00 0.00 0.00 18 1013.2
20260903163558 80 175 3.0 9.0 0.00 0.00 0.00 19 1013.1
20260903163058 80 123 7.0 9.0 0.00 0.00 0.00 19 1013.1
20260903162059 80 118 2.0 10.0 0.00 0.00 0.00 19 1013.1
20260903161059 79 134 4.0 9.0 0.00 0.00 0.00 20 1013.0
20260903160559 79 162 3.0 9.0 0.00 0.00 0.00 20 1013.0
20260903160058 79 187 5.0 6.0 0.00 0.00 0.00 20 1013.0
20260903154059 78 360 0.0 8.0 0.00 0.00 0.00 21 1012.9
20260903153559 78 360 2.0 8.0 0.00 0.00 0.00 21 1012.9
20260903153059 77 360 0.0 8.0 0.00 0.00 0.00 22 1012.9
20260903152559 77 128 3.0 8.0 0.00 0.00 0.00 21 1013.0
20260903152058 77 360 4.0 8.0 0.00 0.00 0.00 21 1013.0
20260903151559 77 360 4.0 8.0 0.00 0.00 0.00 21 1013.0
20260903150559 77 360 4.0 7.0 0.00 0.00 0.00 21 1013.0
20260903150058 77 360 4.0 7.0 0.00 0.00 0.00 21 1013.0
20260903145559 76 84 5.0 8.0 0.00 0.00 0.00 21 1013.0
20260903145058 76 80 3.0 8.0 0.00 0.00 0.00 22 1013.1
20260903144558 76 73 4.0 10.0 0.00 0.00 0.00 21 1013.0
20260903144059 75 108 2.0 10.0 0.00 0.00 0.00 22 1012.8
20260903143558 75 128 5.0 9.0 0.00 0.00 0.00 22 1012.8
20260903143059 75 360 4.0 9.0 0.00 0.00 0.00 22 1012.6
20260903142558 75 116 4.0 9.0 0.00 0.00 0.00 22 1012.7
20260903141558 74 84 2.0 9.0 0.00 0.00 0.00 22 1012.6
20260903141058 73 86 6.0 9.0 0.00 0.00 0.00 23 1012.5
20260903140559 73 65 7.0 9.0 0.00 0.00 0.00 23 1012.4
20260903140058 72 76 5.0 9.0 0.00 0.00 0.00 24 1012.3
20260903135559 72 76 4.0 8.0 0.00 0.00 0.00 24 1012.4
20260903135059 72 82 7.0 7.0 0.00 0.00 0.00 24 1012.2
20260903134558 71 70 3.0 7.0 0.00 0.00 0.00 24 1012.2
20260903134058 71 66 5.0 6.0 0.00 0.00 0.00 24 1012.1
20260903133559 71 86 5.0 8.0 0.00 0.00 0.00 24 1012.0
20260903132558 71 78 2.0 8.0 0.00 0.00 0.00 24 1011.8
20260903132058 71 56 3.0 9.0 0.00 0.00 0.00 24 1011.8
20260903131558 72 55 8.0 9.0 0.00 0.00 0.00 24 1011.7
20260903131058 72 87 0.0 5.0 0.00 0.00 0.00 23 1011.8
20260903130059 72 87 2.0 9.0 0.00 0.00 0.00 23 1011.7
20260903125558 72 355 6.0 10.0 0.00 0.00 0.00 23 1011.9
20260903125058 72 42 6.0 10.0 0.00 0.00 0.00 23 1011.8
20260903124558 71 52 8.0 10.0 0.00 0.00 0.00 23 1011.8
20260903124058 71 67 4.0 10.0 0.00 0.00 0.00 24 1011.8
20260903123558 71 64 7.0 8.0 0.00 0.00 0.00 24 1011.7
20260903123058 72 59 4.0 9.0 0.00 0.00 0.00 23 1011.8
20260903122559 72 51 4.0 9.0 0.00 0.00 0.00 23 1011.7
20260903122058 72 78 4.0 7.0 0.00 0.00 0.00 23 1011.7
20260903121058 73 46 3.0 14.0 0.00 0.00 0.00 22 1011.6
20260903120558 73 76 7.0 12.0 0.00 0.00 0.00 21 1011.6
20260903120058 73 81 2.0 10.0 0.00 0.00 0.00 21 1011.6
20260903115558 73 53 9.0 12.0 0.00 0.00 0.00 21 1011.9
20260903114058 73 69 3.0 10.0 0.00 0.00 0.00 21 1011.9
20260903113558 73 147 4.0 11.0 0.00 0.00 0.00 21 1011.9
20260903113058 74 63 9.0 11.0 0.00 0.00 0.00 21 1011.9
20260903112558 74 84 6.0 10.0 0.00 0.00 0.00 20 1011.9
20260903112058 74 63 4.0 8.0 0.00 0.00 0.00 20 1011.8
20260903111558 75 70 4.0 9.0 0.00 0.00 0.00 20 1011.8
20260903111058 75 69 4.0 9.0 0.00 0.00 0.00 20 1011.8
20260903110559 75 76 4.0 9.0 0.00 0.00 0.00 19 1011.8